Вернуться в каталог

THORAD AGENA D DEB

АктивенPO
NORAD 42526·DEBRIS·🇺🇸 United States

Запущен Apr 8, 1970 с Vandenberg Space Force Base

Loading…

Ближайшие Пролёты (ближайшие 24 часа)

TLE

УстаревающийSource: Space-Track

Эпоха: Sep 11, 2026, 02:13 UTC

1 42526U 70025SG  26254.09277051  .00000160  00000-0  15755-3 0  9996
2 42526  99.8131 203.1655 0085961 258.0564 163.8456 13.92893137649540

Отслеживайте THORAD AGENA D DEB в реальном времени с AllMySat

Download on the App Store